This demonstration page uses our WeatherBlox Daily Observations layout. Learn more.

Left ArrowRight Arrow

41.86663, -103.66717

Hourly Observations for April 23, 2021

Temp ( °F °C ) Dew Point ( °F °C ) Humidity (%) Winds ( mph kmh ) Pressure ( in mb ) Visibility ( mi km ) Precip ( " mm )
12:53 am 00:53 Clear 29 -1.7 23 -5 78 78 N N/A 29.8 1009 10 16.0934 N/A
1:53 am 01:53 Clear 31 -0.6 24 -4.4 76 76 N 8 13 29.78 1008 10 16.0934 N/A
2:53 am 02:53 Clear 32 undefined 23 -5 69 69 NW 12 19 29.76 1008 10 16.0934 N/A
3:53 am 03:53 Clear 31 -0.6 22 -5.6 69 69 NW 9 15 29.77 1008 10 16.0934 N/A
4:53 am 04:53 Clear 28 -2.2 21 -6.1 75 75 WNW 8 13 29.78 1008 10 16.0934 N/A
5:53 am 05:53 Clear 31 -0.6 22 -5.6 69 69 NW 12 19 29.78 1008 10 16.0934 N/A
6:53 am 06:53 Sunny 31 -0.6 23 -5 72 72 NW 12 19 29.81 1009 10 16.0934 N/A
7:53 am 07:53 Sunny 37 2.8 26 -3.3 65 65 WNW 8 13 29.83 1010 10 16.0934 N/A
8:53 am 08:53 Sunny 44 6.7 27 -2.8 51 51 WNW 7 11 29.83 1010 10 16.0934 N/A
9:53 am 09:53 Sunny 50 10 28 -2.2 43 43 W 8 13 29.83 1010 10 16.0934 N/A
10:53 am 10:53 Sunny 53 11.7 30 -1.1 41 41 W 5 7 29.84 1011 10 16.0934 N/A
11:53 am 11:53 Sunny 58 14.4 28 -2.2 32 32 VRB 3 6 29.84 1011 10 16.0934 N/A
12:53 pm 12:53 Sunny 56 13.3 27 -2.8 33 33 undefined N/A 29.85 1011 10 16.0934 N/A
1:53 pm 13:53 Mostly Cloudy 57 13.9 29 -1.7 34 34 NE 15 24 29.85 1011 10 16.0934 N/A
2:53 pm 14:53 Partly Cloudy 57 13.9 28 -2.2 33 33 ENE 12 19 29.85 1011 10 16.0934 N/A
3:53 pm 15:53 Cloudy 55 12.8 28 -2.2 35 35 NNW 7 11 29.88 1012 10 16.0934 N/A
4:53 pm 16:53 Cloudy 50 10 35 1.7 57 57 E 7 11 29.93 1013 10 16.0934 0.001 0.001
5:53 pm 17:53 Mostly Sunny 52 11.1 35 1.7 53 53 ESE 10 17 29.93 1013 10 16.0934 N/A
6:53 pm 18:53 Cloudy 50 10 35 1.7 57 57 ESE 10 17 29.93 1014 10 16.0934 N/A
7:53 pm 19:53 Mostly Clear 43 6.1 31 -0.6 63 63 ENE 9 15 29.97 1015 10 16.0934 N/A
8:53 pm 20:53 Mostly Cloudy 41 5 29 -1.7 62 62 NE 13 20 29.99 1016 10 16.0934 N/A
9:53 pm 21:53 Partly Cloudy 39 3.9 28 -2.2 65 65 NE 14 22 30 1016 10 16.0934 N/A
10:53 pm 22:53 Clear 38 3.3 27 -2.8 65 65 E 10 17 30.01 1016 10 16.0934 N/A
11:53 pm 23:53 Cloudy 36 2.2 27 -2.8 70 70 E 3 6 30.03 1017 10 16.0934 N/A

Powered by AerisWeather